EHI
33 31 28 28 27 25 25 27 30 31 31 28 24 24 28 32 34 30 25 22 21 20 18 16 15 14 14 13 12 14 16 13 10 8 8 10 12 10 7 5 3 2 1
30 28 26 25 24 23 25 28 29 30 30 28 26 25 29 33 33 29 25 21 19 19 19 19 18 17 15 13 12 12 12 12 10 9 9 10 11 9 7 6 5 2 1
26 25 23 22 21 21 25 28 29 29 30 29 27 27 30 31 30 27 25 22 19 18 19 19 18 17 17 16 14 11 9 9 10 9 9 9 10 9 7 6 6 4 3
25 24 23 22 21 21 25 30 31 30 29 29 28 29 30 29 27 26 25 22 20 20 18 16 15 15 16 16 15 12 10 9 9 8 7 8 9 9 7 6 6 6 5
30 28 28 28 25 26 29 32 33 30 28 28 29 29 29 26 23 23 24 22 22 21 19 15 13 13 13 12 11 11 11 10 8 7 6 7 7 8 7 7 6 6 6
36 36 36 35 34 34 35 36 35 32 28 28 29 28 25 22 17 15 17 21 22 21 18 15 12 11 10 8 7 7 7 8 7 7 6 6 7 7 7 6 6 6 5
38 39 40 40 41 40 40 40 39 35 31 29 28 26 22 17 12 8 10 16 19 18 16 13 11 10 9 7 6 5 5 5 6 6 6 6 6 6 6 5 5 6 6
34 36 40 43 43 43 43 42 41 39 36 31 28 26 23 15 9 5 6 11 15 15 13 12 11 10 9 7 6 6 6 6 6 6 6 6 6 6 5 4 4 5 5
29 32 38 42 42 42 42 42 41 40 38 34 30 27 24 17 10 6 6 9 11 11 11 11 11 11 8 6 4 5 6 6 6 6 6 6 5 5 4 4 4 4 4
27 30 34 37 37 36 39 42 41 38 34 30 27 25 24 20 12 6 6 7 8 8 10 11 10 8 5 3 3 4 6 6 6 6 6 5 4 3 4 4 4 3 3
25 26 28 29 28 28 35 41 40 34 29 25 23 23 24 20 12 6 5 6 6 6 8 9 7 4 2 1 1 2 4 5 5 6 6 5 3 3 3 3 3 3 3
22 23 24 24 22 24 32 37 36 31 26 23 22 22 23 19 11 6 5 4 4 4 5 5 4 2 0 0 0 0 1 2 4 5 6 5 4 3 3 3 3 3 3
22 22 23 23 22 24 28 32 32 29 25 22 21 22 24 21 13 8 5 2 1 2 3 3 1 0 0 0 0 0 0 1 3 4 5 4 3 3 2 2 3 3 3
22 22 22 22 23 24 26 26 26 25 23 22 21 21 21 19 13 8 6 4 3 2 2 2 1 1 1 1 1 1 1 2 4 4 4 3 3 3 2 2 3 4 4
20 20 21 21 21 22 22 20 18 17 17 18 17 16 14 12 9 6 5 5 4 3 3 3 4 5 5 4 3 3 3 3 4 4 4 3 4 5 5 4 5 6 6
18 18 18 18 19 19 17 15 12 9 9 9 9 7 6 5 3 2 2 2 3 3 3 4 7 8 7 7 6 6 4 4 4 4 3 3 4 5 5 5 6 7 7
17 17 15 15 15 14 13 12 11 8 5 4 3 2 2 1 1 0 0 0 1 1 2 5 7 9 9 9 8 7 6 5 4 3 3 3 3 4 4 4 6 8 8
16 15 13 12 12 10 9 9 10 8 5 4 3 1 0 0 0 0 0 0 1 1 3 5 7 8 9 9 8 8 8 7 5 4 3 4 4 4 4 4 6 7 8
15 13 11 11 10 7 6 7 7 6 5 4 3 1 0 0 0 0 0 1 2 3 4 6 7 7 8 8 7 7 8 8 6 4 4 4 5 5 5 5 5 5 5
14 10 8 8 7 6 5 5 5 4 4 4 3 2 1 1 1 1 1 1 3 3 4 5 7 8 8 8 6 6 6 7 6 5 4 4 5 5 5 4 3 3 3
11 8 6 5 5 5 5 5 4 4 4 4 4 3 2 2 4 4 4 3 4 3 3 4 5 7 8 7 5 4 5 6 6 6 5 4 4 4 4 3 3 3 2
7 6 6 5 4 5 6 6 4 3 4 4 5 4 3 3 5 6 6 6 6 5 5 6 6 7 7 7 6 4 4 5 6 6 6 5 4 3 3 3 3 2 1
4 5 7 6 6 6 7 7 6 4 3 4 5 5 4 4 5 7 8 9 9 8 8 8 8 8 7 7 7 6 4 4 5 6 6 6 4 3 3 3 2 2 1
3 4 6 7 6 6 6 6 5 4 3 3 4 6 6 6 6 7 8 10 11 10 10 9 9 8 7 7 7 6 5 4 4 4 5 5 4 3 2 1 1 1 0
3 4 4 5 6 6 5 5 4 4 3 2 4 6 7 8 7 7 9 11 12 11 10 9 8 7 7 6 6 5 3 3 2 3 4 4 3 2 1 0 0 0 0
3 3 3 3 4 6 5 4 5 5 3 3 4 6 7 8 7 7 10 12 12 11 9 8 8 7 6 6 4 2 1 1 1 2 3 3 2 1 0 0 0 0 0
Wind_Speed
6 4 4 4 4 3 2 2 1 1 1 1 1 1 1 1 1 1 1 1 1 1 1 1 1 2 2 2 1 1 1 0 1 2 0 0 1 1 2 1 2 3 3
6 5 4 3 4 4 4 3 3 2 2 1 1 1 2 1 1 1 1 1 1 1 1 1 1 1 2 2 2 2 1 1 1 2 1 1 1 1 2 2 2 2 2
6 5 5 4 4 4 4 4 3 2 2 2 2 2 2 2 1 1 1 1 1 1 1 1 0 1 1 1 2 2 2 1 1 1 1 1 1 1 1 2 2 1 2
5 5 5 4 4 4 3 4 4 3 3 3 3 2 2 2 1 1 1 1 1 1 1 1 1 1 1 2 1 2 2 2 1 1 1 1 1 1 1 1 1 1 1
3 4 4 4 3 3 3 3 3 3 3 2 2 3 3 3 1 1 1 2 1 1 1 1 1 1 0 1 2 1 2 2 2 2 2 1 1 1 1 2 1 1 2
3 3 3 3 3 3 3 3 3 3 2 2 2 2 2 1 1 1 1 2 2 2 2 1 2 2 1 1 1 2 2 2 2 2 2 2 2 2 2 2 1 1 1
3 3 3 3 3 3 4 3 2 2 2 2 2 2 2 2 2 1 1 2 3 2 1 1 2 0 1 1 2 3 3 4 4 3 3 3 3 2 2 2 2 2 3
2 2 3 3 3 3 3 3 3 3 2 2 3 3 2 2 3 2 2 3 3 2 2 2 1 1 1 2 3 2 2 2 3 3 3 4 3 2 2 3 3 3 3
1 2 2 2 2 3 3 3 3 3 3 3 3 3 2 3 3 3 2 2 2 2 2 1 1 1 1 2 2 2 2 2 2 3 4 4 5 5 3 2 3 2 3
1 1 1 1 2 2 2 2 2 2 3 3 3 3 3 3 4 4 3 2 2 2 1 1 1 1 1 1 2 2 3 3 3 4 4 4 4 4 5 4 3 3 2
3 2 1 1 2 2 2 2 2 2 3 3 3 3 3 3 5 5 4 2 2 2 1 1 1 2 2 2 2 3 4 4 3 4 4 3 3 2 2 3 3 3 3
2 2 1 1 3 2 2 2 3 3 3 3 3 3 3 3 5 5 6 4 3 3 2 1 0 1 3 4 3 4 5 5 4 3 3 2 2 2 2 2 3 3 3
1 1 1 2 1 2 2 2 3 3 4 3 3 3 3 2 3 4 5 5 4 3 2 2 3 4 3 4 5 5 4 3 3 3 2 2 2 2 1 1 2 2 3
1 1 1 2 2 2 1 2 2 2 3 3 3 2 2 2 2 2 3 3 4 3 3 2 3 4 4 4 3 3 3 3 2 2 2 2 1 1 1 1 1 1 1
1 2 2 2 2 2 1 1 1 0 1 2 1 1 1 0 0 0 1 1 1 1 1 2 2 2 2 2 2 2 2 1 1 2 1 1 1 1 1 1 1 1 1
2 2 3 3 2 2 2 1 1 1 2 1 1 1 0 1 2 1 0 1 1 0 1 2 2 2 3 2 2 1 1 1 1 1 1 1 1 2 2 1 1 1 1
3 3 3 3 3 3 2 2 2 1 1 2 3 3 4 4 3 3 2 2 2 1 2 3 3 3 2 2 1 1 1 1 1 1 1 1 1 1 1 1 1 0 1
4 4 4 3 3 3 3 3 3 3 2 2 3 5 6 5 5 4 2 1 2 3 3 3 3 2 2 1 1 1 1 0 0 1 1 1 1 1 1 1 1 1 1
4 3 3 3 3 3 3 3 3 3 2 3 2 3 5 5 3 3 3 3 3 4 3 3 2 2 1 1 1 1 1 1 1 1 0 1 1 1 1 1 1 1 1
3 4 4 4 4 3 3 3 2 2 2 1 1 1 2 3 3 3 4 4 4 4 3 3 2 1 1 1 1 1 1 1 1 1 1 1 1 1 1 2 1 1 1
3 3 4 4 4 3 3 2 2 2 2 2 1 1 3 3 3 4 4 4 4 3 2 1 1 1 1 1 1 1 1 1 1 1 1 1 1 2 2 2 2 2 1
3 4 3 3 2 2 3 2 2 3 2 2 1 1 4 4 3 3 2 2 2 2 1 1 1 1 1 0 1 1 1 1 1 1 1 2 2 2 2 2 2 2 2
4 4 4 3 3 3 3 3 2 2 2 2 2 1 2 3 3 2 2 1 0 1 1 1 1 0 0 1 0 0 1 1 1 2 2 2 2 2 2 2 2 2 2
4 4 3 3 3 3 3 3 3 3 3 2 2 2 2 2 3 2 1 0 0 1 1 1 1 1 1 1 1 1 1 1 2 2 3 3 3 2 2 2 2 3 2
4 3 3 3 3 3 3 3 3 3 3 2 2 2 2 1 1 1 0 1 0 1 1 1 1 1 2 2 2 2 1 1 1 2 2 2 3 3 3 2 2 3 2
3 3 3 2 3 3 3 3 3 3 2 2 2 2 1 1 0 0 1 1 1 1 1 1 2 2 3 2 2 3 2 1 2 2 2 2 3 3 2 2 3 3 2
Wind_Direction
177 178 178 179 186 185 200 208 194 204 200 222 237 206 205 200 201 218 228 210 201 252 286 264 265 280 299 298 307 295 288 271 264 290 293 136 141 148 132 184 179 169 173
174 181 186 183 191 197 202 201 201 199 196 213 225 213 212 192 212 228 236 241 254 241 262 282 305 318 317 315 309 299 293 266 243 281 273 232 218 193 165 210 203 179 170
175 184 192 199 207 209 199 194 194 198 200 209 216 213 217 207 215 226 233 243 263 275 274 269 241 281 295 299 295 300 299 302 259 268 272 244 228 209 205 241 226 212 201
179 192 196 202 203 211 210 194 191 200 207 213 220 216 206 203 211 231 259 237 258 285 272 255 260 243 297 301 294 306 309 316 308 293 277 262 248 236 215 250 254 232 239
185 193 195 202 203 205 207 196 195 205 217 218 227 229 216 199 204 193 256 232 242 254 266 257 257 177 189 304 315 325 323 313 304 291 284 292 276 293 259 257 254 237 237
199 204 189 201 208 210 208 196 197 207 227 220 229 236 227 215 133 144 261 268 261 252 254 248 222 190 188 218 247 268 276 278 294 292 294 287 280 271 271 271 265 254 255
188 193 190 200 206 214 218 198 194 206 211 219 226 223 198 160 140 128 305 276 272 269 270 261 257 245 167 260 249 240 252 261 247 247 267 279 282 293 290 289 286 265 261
192 199 201 203 208 199 203 200 196 206 209 215 221 224 193 167 159 172 279 255 262 262 257 245 224 178 278 288 277 269 266 279 263 239 245 258 266 270 260 256 263 269 269
206 216 214 208 213 207 212 204 194 209 220 224 216 214 194 168 180 189 222 253 250 251 251 264 216 179 298 309 288 275 270 276 293 281 254 250 252 254 252 264 266 263 265
7 335 284 223 225 221 216 216 211 216 226 235 229 213 197 176 181 181 193 244 255 257 242 183 143 171 267 285 273 272 264 268 282 290 282 269 256 243 231 223 239 248 251
14 12 4 329 247 223 212 202 214 230 238 235 235 218 197 183 178 186 190 219 263 279 274 234 156 170 213 246 260 262 258 273 272 266 267 265 253 237 219 214 224 223 235
21 7 347 308 280 255 212 210 216 232 241 236 228 227 215 187 181 192 199 214 237 262 272 282 176 234 251 257 259 264 269 281 271 266 268 266 259 253 234 209 222 227 222
358 339 318 284 267 279 257 231 220 224 232 230 219 222 215 195 171 189 206 223 233 246 264 289 272 263 269 261 253 260 265 257 254 260 265 273 261 250 231 219 226 231 234
327 306 277 264 259 250 249 242 234 239 236 233 229 230 213 182 170 183 209 217 230 238 247 241 243 252 262 270 266 250 244 253 253 258 261 266 274 266 245 224 225 227 243
290 283 272 255 245 247 229 269 254 241 249 250 266 268 258 232 53 101 244 224 235 267 261 242 247 252 259 253 254 254 242 236 262 281 289 301 298 298 285 258 211 231 259
275 279 284 278 257 231 206 215 5 211 172 177 187 194 199 218 204 195 218 269 265 225 188 243 252 250 253 252 251 248 255 280 284 273 275 287 285 279 277 268 242 223 237
267 270 271 272 275 273 248 216 212 213 222 233 232 217 219 224 226 228 229 249 265 179 209 246 250 253 255 255 239 239 255 262 263 281 273 271 275 277 280 280 274 271 298
260 259 261 265 263 261 258 247 235 220 212 227 233 222 214 213 223 228 209 173 219 206 229 241 246 248 244 246 256 258 255 249 257 272 288 304 302 285 286 292 285 267 273
273 274 279 280 272 265 265 257 253 249 223 204 202 202 207 207 214 224 195 213 232 237 238 241 242 237 237 228 260 288 274 240 250 244 266 283 274 278 282 292 302 304 269
262 265 270 276 273 265 253 262 264 265 273 234 203 194 161 175 194 194 199 217 226 231 239 240 229 215 204 201 200 223 254 253 263 267 261 266 274 274 271 274 276 276 261
271 270 268 273 271 277 278 276 275 263 257 254 257 193 193 217 215 213 208 215 223 226 225 229 207 219 220 217 212 224 240 244 245 276 280 267 266 265 260 254 249 255 266
281 267 259 265 273 272 273 269 263 262 261 258 226 196 201 231 241 237 228 212 212 205 188 170 184 204 212 224 215 228 233 233 258 266 275 277 263 263 266 261 257 260 261
275 269 264 262 265 264 263 268 272 272 272 273 273 233 214 245 255 246 243 240 186 111 106 123 138 168 69 109 160 289 263 252 266 267 266 273 274 267 265 259 258 263 259
271 266 268 273 271 269 269 268 266 265 266 269 270 272 249 236 258 268 276 250 129 121 123 121 120 60 39 41 50 57 346 320 296 280 268 267 266 265 267 265 264 266 259
270 268 264 268 270 270 275 276 271 267 265 268 269 270 270 270 284 296 97 89 81 90 99 104 104 92 71 53 41 37 50 11 307 307 281 268 268 263 262 266 271 270 254
278 283 275 268 272 275 278 281 280 285 283 278 275 271 272 276 317 19 67 61 48 66 122 123 111 99 92 74 51 56 65 5 310 283 275 270 261 264 269 269 268 265 251